KB1WCR Weather Reports


time (UTC)temp
C
wind
direction
speed
KPH
gust
KPH
rain 1hr
cm
rain 24hr
cm
rain mn
cm
humidity
%
barometer
mb
20260507185753 17 257 3.2 4.8 0.00 0.15 0.15 42 1004.2
20260507185249 16 229 6.4 9.7 0.00 0.15 0.15 43 1004.1
20260507184747 16 214 1.6 3.2 0.00 0.15 0.15 42 1004.2
20260507184245 16 321 6.4 9.7 0.00 0.15 0.15 41 1004.5
20260507183741 16 279 8.0 11.3 0.00 0.15 0.15 41 1004.4
20260507183238 16 192 4.8 4.8 0.00 0.15 0.15 40 1004.7
20260507182736 16 207 6.4 11.3 0.00 0.15 0.15 39 1004.5
20260507182230 15 239 9.7 12.9 0.00 0.15 0.15 43 1004.5
20260507181728 15 221 12.9 16.1 0.00 0.15 0.15 42 1004.6
20260507181224 16 252 3.2 4.8 0.00 0.15 0.15 46 1004.6
20260507180721 16 250 4.8 4.8 0.00 0.15 0.15 47 1004.6
20260507180218 15 246 11.3 12.9 0.00 0.15 0.15 51 1004.4
20260507175713 15 307 12.9 16.1 0.00 0.15 0.15 51 1004.5
20260507175210 16 292 3.2 3.2 0.00 0.15 0.15 45 1004.6
20260507174708 16 211 9.7 11.3 0.00 0.15 0.15 46 1004.5
20260507174205 16 228 12.9 14.5 0.00 0.15 0.15 48 1004.6
20260507173703 15 214 6.4 6.4 0.00 0.15 0.15 50 1004.7
20260507173159 15 238 6.4 9.7 0.00 0.15 0.15 53 1004.9
20260507172656 15 234 12.9 14.5 0.00 0.15 0.15 49 1004.9
20260507172147 15 287 4.8 4.8 0.00 0.15 0.15 57 1004.9
20260507171641 15 266 3.2 4.8 0.00 0.15 0.15 57 1004.9
20260507171138 15 274 6.4 11.3 0.00 0.15 0.15 54 1004.8
20260507170635 15 272 4.8 6.4 0.00 0.15 0.15 54 1004.8
20260507170133 15 255 9.7 16.1 0.00 0.15 0.15 54 1004.9
20260507165628 16 298 3.2 12.9 0.00 0.15 0.15 52 1005.0
20260507165125 16 220 4.8 4.8 0.00 0.15 0.15 55 1005.0
20260507164620 16 269 4.8 6.4 0.00 0.15 0.15 55 1005.3
20260507164118 15 316 9.7 11.3 0.00 0.15 0.15 57 1005.2
20260507163615 15 224 4.8 4.8 0.00 0.15 0.15 59 1005.2
20260507163114 14 252 3.2 4.8 0.00 0.15 0.15 58 1005.2
20260507162614 15 277 9.7 12.9 0.00 0.15 0.15 56 1005.2
20260507162111 15 270 3.2 4.8 0.00 0.15 0.15 59 1005.3
20260507161607 15 252 4.8 4.8 0.00 0.15 0.15 60 1005.2
20260507161103 15 268 4.8 6.4 0.00 0.15 0.15 59 1005.3
20260507160554 15 283 4.8 4.8 0.00 0.15 0.15 62 1005.5
20260507160051 15 14 6.4 9.7 0.00 0.15 0.15 60 1005.6
20260507155546 16 240 11.3 12.9 0.00 0.15 0.15 52 1005.4
20260507155044 16 217 8.0 9.7 0.00 0.15 0.15 54 1005.5
20260507154540 15 255 1.6 1.6 0.00 0.15 0.15 59 1005.6
20260507154037 14 201 4.8 6.4 0.00 0.15 0.15 59 1005.5
20260507153534 14 272 6.4 9.7 0.00 0.15 0.15 58 1005.7
20260507153030 15 231 3.2 3.2 0.00 0.15 0.15 58 1005.8
20260507152526 15 210 6.4 6.4 0.00 0.15 0.15 59 1005.8
20260507152023 15 252 0.0 0.0 0.00 0.15 0.15 60 1005.7
20260507151519 16 303 1.6 1.6 0.00 0.15 0.15 58 1005.6
20260507151016 16 294 0.0 1.6 0.00 0.15 0.15 61 1005.9
20260507150513 15 30 1.6 3.2 0.00 0.15 0.15 59 1005.8
20260507150010 15 275 4.8 6.4 0.00 0.15 0.15 60 1005.7
20260507145505 15 217 1.6 1.6 0.00 0.15 0.15 62 1005.7
20260507145003 15 304 3.2 4.8 0.00 0.15 0.15 60 1005.7
20260507144459 15 279 1.6 1.6 0.00 0.15 0.15 60 1005.7
20260507143956 14 11 4.8 4.8 0.00 0.15 0.15 61 1006.0
20260507143454 15 296 0.0 0.0 0.00 0.15 0.15 69 1006.0
20260507142950 14 286 3.2 4.8 0.00 0.15 0.15 65 1005.9
20260507142446 14 299 3.2 3.2 0.00 0.15 0.15 65 1006.1
20260507141943 14 239 1.6 1.6 0.00 0.15 0.15 64 1006.2
20260507141439 14 239 4.8 4.8 0.00 0.15 0.15 65 1006.1
20260507140936 13 40 1.6 3.2 0.00 0.15 0.15 64 1006.3
20260507140433 14 290 8.0 9.7 0.00 0.15 0.15 65 1006.3
20260507135931 13 239 3.2 4.8 0.00 0.15 0.15 66 1006.3
20260507135427 13 273 3.2 4.8 0.00 0.15 0.15 69 1006.4
20260507134925 13 242 4.8 6.4 0.00 0.15 0.15 68 1006.5
20260507134421 13 274 1.6 1.6 0.00 0.15 0.15 69 1006.4
20260507133917 13 178 3.2 4.8 0.00 0.15 0.15 74 1006.5
20260507133412 13 264 3.2 4.8 0.00 0.15 0.15 76 1006.5
20260507132906 13 260 0.0 1.6 0.00 0.15 0.15 76 1006.6
20260507132402 13 284 6.4 6.4 0.00 0.15 0.15 73 1006.5
20260507131858 12 260 0.0 1.6 0.00 0.15 0.15 76 1006.6
20260507131355 12 53 3.2 3.2 0.00 0.15 0.15 76 1006.7
20260507130852 12 338 1.6 1.6 0.00 0.15 0.15 75 1006.5
20260507130349 12 289 3.2 4.8 0.00 0.15 0.15 74 1006.7
20260507125848 12 296 4.8 6.4 0.00 0.15 0.15 74 1006.7
20260507125345 12 45 3.2 3.2 0.00 0.15 0.15 74 1006.8
20260507124843 12 58 3.2 3.2 0.00 0.15 0.15 75 1006.6
20260507124338 12 298 1.6 1.6 0.00 0.15 0.15 75 1006.6
20260507123838 12 241 3.2 3.2 0.00 0.15 0.15 76 1006.5
20260507123334 11 312 4.8 4.8 0.00 0.15 0.15 79 1006.7
20260507122831 11 279 1.6 1.6 0.00 0.15 0.15 77 1006.7
20260507122326 11 267 1.6 4.8 0.00 0.15 0.15 80 1006.6
20260507121823 11 281 3.2 3.2 0.00 0.15 0.15 81 1006.7
20260507121318 11 239 6.4 6.4 0.00 0.15 0.15 79 1006.6
20260507120815 11 302 0.0 0.0 0.00 0.15 0.15 85 1006.7
20260507120311 10 250 3.2 4.8 0.00 0.15 0.15 83 1006.4
20260507115807 10 248 3.2 3.2 0.00 0.15 0.15 85 1006.8
20260507115306 10 285 1.6 1.6 0.00 0.15 0.15 84 1006.7
20260507114759 10 233 3.2 3.2 0.00 0.15 0.15 85 1006.8
20260507114256 10 289 1.6 1.6 0.00 0.15 0.15 87 1007.0
20260507113754 10 284 0.0 0.0 0.13 0.15 0.15 86 1006.8
20260507113250 10 349 0.0 0.0 0.13 0.15 0.15 88 1006.8
20260507112748 8 309 0.0 0.0 0.00 0.13 0.13 92 1006.4
20260507112245 8 283 0.0 0.0 0.00 0.13 0.13 93 1006.8
20260507111743 8 270 0.0 0.0 0.00 0.13 0.13 93 1006.7
20260507111239 8 277 0.0 0.0 0.00 0.13 0.13 93 1007.0
20260507110735 8 304 0.0 0.0 0.00 0.13 0.13 95 1006.9
20260507110232 8 277 0.0 0.0 0.00 0.13 0.13 95 1007.1
20260507105729 8 261 0.0 0.0 0.00 0.13 0.13 95 1007.1
20260507105225 8 320 0.0 0.0 0.00 0.13 0.13 96 1006.6
20260507104722 8 289 0.0 0.0 0.00 0.13 0.13 97 1006.8
20260507104219 8 283 0.0 0.0 0.00 0.13 0.13 97 1007.1
20260507103714 7 270 0.0 0.0 0.00 0.13 0.13 97 1007.2
20260507103205 7 259 0.0 0.0 0.00 0.13 0.13 98 1007.1
20260507102702 7 276 0.0 0.0 0.00 0.13 0.13 98 1007.0
20260507102159 7 291 0.0 0.0 0.00 0.13 0.13 98 1006.7
20260507101654 7 252 0.0 0.0 0.00 0.13 0.13 98 1007.4
20260507101150 7 302 0.0 0.0 0.00 0.13 0.13 97 1006.5
20260507100648 7 279 0.0 1.6 0.00 0.13 0.13 97 1006.8
20260507100146 7 275 0.0 0.0 0.00 0.13 0.13 97 1007.1
20260507095643 7 274 0.0 0.0 0.00 0.13 0.13 96 1007.0
20260507095140 7 262 0.0 0.0 0.00 0.13 0.13 96 1007.0
20260507094636 7 289 3.2 3.2 0.00 0.13 0.13 96 1006.7
20260507094133 7 294 1.6 1.6 0.00 0.13 0.13 95 1006.5
20260507093630 7 286 1.6 1.6 0.00 0.13 0.13 96 1006.4
20260507093129 7 300 3.2 4.8 0.00 0.13 0.13 95 1006.3
20260507092626 8 272 0.0 0.0 0.00 0.13 0.13 95 1006.6
20260507092122 8 292 3.2 4.8 0.00 0.13 0.13 94 1006.0
20260507091619 8 313 0.0 1.6 0.00 0.13 0.13 94 1006.0
20260507091114 8 214 0.0 0.0 0.00 0.13 0.13 94 1006.2
20260507090610 8 269 1.6 3.2 0.00 0.13 0.13 94 1006.2
20260507090108 8 313 0.0 0.0 0.00 0.13 0.13 94 1006.3
20260507085604 8 286 0.0 0.0 0.00 0.13 0.13 94 1006.4
20260507085101 8 290 1.6 3.2 0.00 0.13 0.13 94 1006.3
20260507084558 8 289 0.0 0.0 0.00 0.13 0.13 94 1006.4
20260507084055 8 41 1.6 3.2 0.00 0.13 0.13 94 1006.4
20260507083551 8 272 1.6 1.6 0.00 0.13 0.13 95 1006.9
20260507083048 8 291 0.0 1.6 0.00 0.13 0.13 96 1006.6
20260507082544 8 261 0.0 0.0 0.00 0.13 0.13 96 1006.6
20260507082041 8 293 1.6 3.2 0.00 0.13 0.13 97 1006.2
20260507081537 8 286 0.0 1.6 0.00 0.13 0.13 96 1006.0
20260507081034 8 296 1.6 3.2 0.00 0.13 0.13 97 1005.8
20260507080530 8 289 1.6 3.2 0.00 0.13 0.13 97 1006.1
20260507080027 8 300 0.0 1.6 0.00 0.13 0.13 97 1006.7
20260507075522 8 28 3.2 3.2 0.00 0.13 0.13 98 1006.4
20260507075019 8 302 0.0 0.0 0.00 0.13 0.13 98 1006.0
20260507074515 8 301 0.0 0.0 0.00 0.13 0.13 98 1006.1
20260507074014 8 324 0.0 1.6 0.00 0.13 0.13 98 1005.8
20260507073510 8 17 3.2 3.2 0.00 0.13 0.13 98 1005.7
20260507073006 8 28 3.2 3.2 0.00 0.13 0.13 98 1006.0
20260507072504 8 8 0.0 1.6 0.00 0.13 0.13 98 1005.8
20260507072001 8 340 1.6 1.6 0.00 0.13 0.13 97 1005.5
20260507071458 8 309 0.0 0.0 0.00 0.13 0.13 97 1005.8
20260507070955 8 11 4.8 6.4 0.00 0.13 0.13 97 1005.9
20260507070452 8 320 3.2 3.2 0.00 0.13 0.13 97 1005.7
20260507065949 9 23 3.2 4.8 0.00 0.13 0.13 96 1005.8
20260507065445 9 325 3.2 4.8 0.00 0.13 0.13 97 1005.7
20260507064943 9 11 3.2 3.2 0.00 0.13 0.13 98 1005.7
20260507064441 9 313 0.0 1.6 0.00 0.13 0.13 99 1005.5
20260507063938 9 316 3.2 3.2 0.00 0.13 0.13 99 1005.4
20260507063435 9 289 1.6 1.6 0.00 0.13 0.13 99 1005.4
20260507062932 9 276 0.0 1.6 0.00 0.13 0.13 99 1005.4
20260507062429 9 298 0.0 0.0 0.00 0.13 0.13 99 1005.1
20260507061926 9 32 1.6 1.6 0.00 0.13 0.13 99 1005.2
20260507061424 9 283 1.6 3.2 0.00 0.13 0.13 99 1005.3
20260507060923 9 270 1.6 1.6 0.00 0.13 0.13 99 1005.2
20260507060419 9 344 0.0 0.0 0.00 0.13 0.13 99 1005.1
20260507055916 10 324 1.6 1.6 0.00 0.13 0.13 99 1005.2
20260507055411 10 307 1.6 3.2 0.00 0.13 0.13 99 1005.1
20260507054908 10 307 1.6 1.6 0.00 0.13 0.13 99 1005.1
20260507054404 10 282 0.0 1.6 0.00 0.13 0.13 99 1005.3
20260507053901 10 292 0.0 0.0 0.00 0.13 0.13 99 1005.3
20260507053359 10 282 1.6 3.2 0.00 0.13 0.13 99 1005.2
20260507052858 10 346 0.0 0.0 0.00 0.13 0.13 99 1005.0
20260507052354 10 278 0.0 0.0 0.00 0.13 0.13 99 1005.2
20260507051852 10 42 0.0 0.0 0.00 0.13 0.13 99 1005.2
20260507051349 10 287 1.6 1.6 0.00 0.13 0.13 99 1005.2
20260507050845 10 40 0.0 0.0 0.00 0.13 0.13 99 1004.9
20260507050342 10 277 0.0 0.0 0.00 0.13 0.13 99 1004.8
20260507045833 10 305 3.2 3.2 0.00 0.13 0.13 99 1004.8
20260507045330 11 28 4.8 6.4 0.00 0.13 0.13 99 1004.9
20260507044827 12 54 4.8 4.8 0.00 0.13 0.13 99 1004.6
20260507044324 12 326 1.6 1.6 0.00 0.13 0.13 99 1004.5
20260507043820 12 341 6.4 11.3 0.00 0.13 0.13 99 1004.4
20260507043316 13 302 3.2 3.2 0.00 0.13 0.13 99 1004.6
20260507042813 13 247 1.6 1.6 0.00 0.13 0.13 99 1004.4
20260507042309 13 272 1.6 1.6 0.18 0.13 0.13 99 1004.5
20260507041806 13 269 1.6 3.2 0.30 0.13 0.13 99 1004.2
20260507041302 13 269 1.6 3.2 0.48 0.10 0.10 99 1004.2
20260507040800 13 282 0.0 1.6 0.66 0.08 0.08 99 1004.2
20260507040255 13 283 0.0 0.0 0.43 0.03 0.03 99 1004.3
20260507035751 12 255 0.0 0.0 0.13 0.91 0.91 99 1004.4
20260507035247 12 282 0.0 0.0 0.13 0.91 0.91 99 1004.4
20260507034745 12 285 0.0 0.0 0.00 0.89 0.89 99 1004.4
20260507034241 12 279 0.0 0.0 0.00 0.89 0.89 99 1004.0
20260507033740 12 279 0.0 0.0 0.00 0.89 0.89 99 1004.0
20260507033237 12 292 0.0 0.0 0.00 0.89 0.89 99 1003.9
20260507032734 12 298 0.0 0.0 0.00 0.89 0.89 99 1003.9
20260507032230 12 288 0.0 0.0 0.00 0.89 0.89 99 1003.8
20260507031727 12 306 0.0 0.0 0.00 0.89 0.89 99 1003.7
20260507031223 12 294 0.0 0.0 0.00 0.89 0.89 99 1003.7
20260507030720 12 287 0.0 0.0 0.00 0.89 0.89 99 1003.7
20260507030218 12 279 0.0 0.0 0.00 0.89 0.89 99 1004.0
20260507025715 12 274 0.0 0.0 0.00 0.89 0.89 99 1004.0
20260507025212 12 232 3.2 3.2 0.18 0.89 0.89 99 1003.8
20260507024710 12 284 0.0 0.0 0.18 0.89 0.89 99 1003.9
20260507024207 12 303 0.0 0.0 0.00 0.86 0.86 99 1004.0
20260507023702 12 260 0.0 0.0 0.00 0.86 0.86 99 1003.8
20260507023200 12 278 0.0 0.0 0.00 0.86 0.86 99 1004.1
20260507022657 12 296 0.0 1.6 0.00 0.86 0.86 99 1004.2
20260507022152 12 233 1.6 1.6 0.00 0.86 0.86 99 1004.0
20260507021649 12 213 1.6 3.2 0.00 0.86 0.86 99 1004.2
20260507021144 12 262 1.6 1.6 0.00 0.86 0.86 99 1004.0
20260507020643 12 262 0.0 0.0 0.00 0.86 0.86 99 1004.2
20260507020139 12 271 0.0 1.6 0.00 0.86 0.86 99 1004.2
20260507015637 12 250 0.0 1.6 0.00 0.86 0.86 99 1004.2
20260507015134 12 248 1.6 1.6 0.00 0.86 0.86 99 1004.3
20260507014631 12 223 1.6 3.2 0.00 0.86 0.86 99 1004.1
20260507014127 12 235 1.6 1.6 0.00 0.86 0.86 99 1004.5
20260507013624 12 158 3.2 3.2 0.00 0.86 0.86 99 1004.4
20260507013121 12 211 3.2 4.8 0.00 0.86 0.86 99 1004.6
20260507012618 12 232 3.2 3.2 0.00 0.86 0.86 99 1004.5
20260507012113 12 225 1.6 1.6 0.00 0.86 0.86 99 1004.4
20260507011612 12 269 1.6 1.6 0.00 0.86 0.86 99 1004.5
20260507011108 12 223 1.6 3.2 0.13 0.86 0.86 99 1004.6
20260507010603 12 270 1.6 1.6 0.13 0.86 0.86 99 1004.6
20260507010059 12 207 6.4 9.7 0.00 0.84 0.84 99 1004.7
20260507005556 12 130 1.6 3.2 0.00 0.84 0.84 99 1004.5
20260507005052 12 261 0.0 0.0 0.00 0.84 0.84 99 1004.8
20260507004549 12 176 3.2 4.8 0.00 0.84 0.84 99 1004.7
20260507004047 12 92 4.8 4.8 0.00 0.84 0.84 99 1004.6
20260507003543 13 228 1.6 3.2 0.00 0.84 0.84 99 1004.5
20260507003038 13 170 3.2 3.2 0.00 0.84 0.84 99 1004.6
20260507002535 13 229 4.8 4.8 0.00 0.84 0.84 99 1004.6
20260507002030 13 160 4.8 4.8 0.00 0.84 0.84 99 1004.6
20260507001527 13 200 3.2 6.4 0.00 0.84 0.84 99 1004.6
20260507001020 13 140 0.0 1.6 0.00 0.84 0.84 99 1004.7
20260507000515 13 216 3.2 4.8 0.00 0.84 0.84 99 1004.7
20260507000011 13 31 1.6 3.2 0.00 0.84 0.84 99 1004.6
20260506235508 13 254 3.2 4.8 0.00 0.84 0.84 99 1004.8
20260506235004 13 213 3.2 4.8 0.00 0.84 0.84 99 1004.7
20260506234502 13 186 4.8 4.8 0.00 0.84 0.84 99 1004.7
20260506233959 13 187 6.4 6.4 0.00 0.84 0.84 99 1004.9
20260506233455 13 199 3.2 3.2 0.00 0.84 0.84 99 1004.6
20260506232951 13 287 3.2 4.8 0.00 0.84 0.84 99 1004.7
20260506232448 13 279 3.2 3.2 0.00 0.84 0.84 99 1004.7
20260506231944 13 199 9.7 12.9 0.00 0.84 0.84 99 1004.9
20260506231441 13 218 6.4 6.4 0.00 0.84 0.84 99 1004.5
20260506230938 13 155 4.8 9.7 0.00 0.84 0.84 99 1004.6
20260506230435 13 210 4.8 6.4 0.00 0.84 0.84 99 1004.7
20260506225932 13 202 3.2 4.8 0.00 0.84 0.84 99 1004.9
20260506225429 13 217 3.2 4.8 0.00 0.84 0.84 99 1005.0
20260506224926 13 194 1.6 3.2 0.00 0.84 0.84 99 1004.9
20260506224423 13 197 3.2 4.8 0.00 0.84 0.84 99 1005.1
20260506223919 13 192 3.2 4.8 0.00 0.84 0.84 99 1005.1
20260506223415 13 220 3.2 4.8 0.00 0.84 0.84 99 1005.0
20260506222912 13 203 8.0 11.3 0.00 0.84 0.84 99 1005.0
20260506222409 13 179 9.7 14.5 0.00 0.84 0.84 99 1005.0
20260506221906 13 288 1.6 1.6 0.00 0.84 0.84 99 1005.2
20260506221403 13 184 3.2 4.8 0.18 0.84 0.84 99 1005.4
20260506220901 13 132 3.2 3.2 0.18 0.84 0.84 99 1005.3
20260506220356 13 138 4.8 6.4 0.00 0.81 0.81 99 1005.1
20260506215853 13 207 4.8 9.7 0.00 0.81 0.81 99 1005.5
20260506215348 13 288 6.4 9.7 0.00 0.81 0.81 99 1005.4
20260506214844 13 242 3.2 3.2 0.00 0.81 0.81 99 1005.1
20260506214341 13 77 3.2 3.2 0.00 0.81 0.81 99 1005.3
20260506213840 13 209 3.2 6.4 0.00 0.81 0.81 99 1005.5
20260506213337 13 250 3.2 3.2 0.00 0.81 0.81 99 1005.4
20260506212834 13 151 3.2 4.8 0.13 0.81 0.81 99 1005.2
20260506212329 13 264 4.8 4.8 0.13 0.81 0.81 99 1005.5
20260506211825 13 228 3.2 6.4 0.00 0.79 0.79 99 1005.5
20260506211321 13 287 6.4 6.4 0.18 0.79 0.79 99 1005.7
20260506210819 13 80 3.2 3.2 0.30 0.79 0.79 99 1005.5
20260506210315 13 128 1.6 3.2 0.48 0.76 0.76 99 1005.7
20260506205813 13 188 3.2 3.2 0.79 0.76 0.76 99 1005.7
20260506205308 13 276 0.0 1.6 0.79 0.71 0.71 99 1005.7
20260506204805 13 199 3.2 4.8 0.43 0.64 0.64 99 1006.1
20260506204303 13 238 1.6 1.6 0.30 0.58 0.58 99 1005.8
20260506203800 13 238 0.0 1.6 0.30 0.56 0.56 99 1005.8
20260506203257 13 282 1.6 1.6 0.13 0.53 0.53 99 1005.8
20260506202754 13 232 1.6 1.6 0.00 0.51 0.51 99 1005.7
20260506202251 13 263 1.6 1.6 0.00 0.51 0.51 99 1005.7
20260506201747 13 227 3.2 4.8 0.00 0.51 0.51 99 1005.9
20260506201244 14 104 1.6 3.2 0.18 0.51 0.51 99 1006.0
20260506200742 14 178 3.2 3.2 0.18 0.51 0.51 99 1005.9
20260506200238 13 257 0.0 1.6 0.00 0.48 0.48 99 1005.8
20260506195735 13 275 0.0 0.0 0.00 0.48 0.48 99 1005.9
20260506195231 13 208 1.6 3.2 0.13 0.48 0.48 99 1005.9
20260506194728 13 313 0.0 0.0 0.79 0.48 0.48 99 1006.2
20260506194225 14 213 3.2 3.2 0.97 0.46 0.46 99 1006.4
20260506193723 14 106 1.6 1.6 0.61 0.36 0.36 99 1006.5
20260506193219 14 266 0.0 1.6 0.61 0.30 0.30 98 1006.4
20260506192715 14 248 1.6 1.6 0.48 0.28 0.28 98 1006.3
20260506192212 14 238 1.6 3.2 0.13 0.20 0.20 97 1006.3
20260506191709 14 219 4.8 4.8 0.00 0.18 0.18 97 1006.5
20260506191205 14 70 1.6 1.6 0.18 0.18 0.18 97 1006.4
20260506190702 14 200 3.2 6.4 0.48 0.18 0.18 96 1006.3
20260506190153 15 279 3.2 4.8 0.43 0.15 0.15 95 1006.8